GW3840 Weather Reports


Display with metric or nautical units.
time (UTC)temp
F
wind
direction
speed
MPH
gust
MPH
rain 1hr
in
rain 24hr
in
rain mn
in
humidity
%
barometer
mb
20260506130752 35 293 2.0 8.0 0.00 0.00 0.00 66 1017.9
20260506130249 35 353 5.0 7.0 0.00 0.00 0.00 67 1017.9
20260506125747 35 349 2.0 8.0 0.00 0.00 0.00 67 1017.8
20260506125245 35 292 5.0 9.0 0.00 0.00 0.00 67 1017.8
20260506124743 35 346 5.0 7.0 0.00 0.00 0.00 68 1017.6
20260506124240 35 287 4.0 7.0 0.00 0.00 0.00 69 1017.7
20260506123737 35 355 3.0 6.0 0.00 0.00 0.00 69 1017.6
20260506123237 35 336 2.0 7.0 0.00 0.00 0.00 68 1017.4
20260506122732 35 326 5.0 7.0 0.00 0.00 0.00 68 1017.5
20260506122230 35 338 5.0 7.0 0.00 0.00 0.00 69 1017.2
20260506121728 35 283 2.0 8.0 0.00 0.00 0.00 69 1017.5
20260506121225 35 296 2.0 6.0 0.00 0.00 0.00 68 1017.1
20260506120722 35 300 3.0 8.0 0.00 0.00 0.00 69 1017.1
20260506120219 35 343 2.0 4.0 0.00 0.00 0.00 69 1016.9
20260506115717 35 346 4.0 7.0 0.00 0.00 0.00 70 1017.0
20260506115215 35 316 2.0 3.0 0.00 0.00 0.00 71 1017.0
20260506114712 35 358 2.0 4.0 0.00 0.00 0.00 69 1016.9
20260506114210 35 278 4.0 7.0 0.00 0.00 0.00 70 1017.0
20260506113708 35 326 3.0 7.0 0.00 0.00 0.00 71 1016.8
20260506113205 35 301 4.0 7.0 0.00 0.00 0.00 70 1016.8
20260506112701 35 357 3.0 8.0 0.00 0.00 0.00 70 1016.6
20260506112159 35 283 5.0 6.0 0.00 0.00 0.00 71 1016.6
20260506111656 35 292 3.0 6.0 0.00 0.00 0.00 72 1016.6
20260506111154 35 324 2.0 6.0 0.00 0.00 0.00 71 1016.5
20260506110651 35 342 4.0 6.0 0.00 0.00 0.00 71 1016.5
20260506110149 35 320 3.0 3.0 0.00 0.00 0.00 72 1016.5
20260506105645 35 355 2.0 3.0 0.00 0.00 0.00 72 1016.3
20260506105142 35 323 3.0 6.0 0.00 0.00 0.00 71 1016.5
20260506104641 35 272 2.0 6.0 0.00 0.00 0.00 70 1016.4
20260506104138 35 322 4.0 6.0 0.00 0.00 0.00 70 1016.4
20260506103635 35 322 3.0 6.0 0.00 0.00 0.00 70 1016.3
20260506103132 35 353 3.0 4.0 0.00 0.00 0.00 70 1016.4
20260506102630 35 297 2.0 4.0 0.00 0.00 0.00 69 1016.3
20260506102127 35 6 4.0 7.0 0.00 0.00 0.00 69 1016.3
20260506101623 35 57 0.0 6.0 0.00 0.00 0.00 71 1016.2
20260506101120 35 343 3.0 4.0 0.00 0.00 0.00 71 1016.3
20260506100619 35 335 3.0 7.0 0.00 0.00 0.00 69 1016.2
20260506100116 35 326 3.0 4.0 0.00 0.00 0.00 71 1016.4
20260506095615 35 28 2.0 3.0 0.00 0.00 0.00 71 1016.4
20260506095111 35 273 1.0 2.0 0.00 0.00 0.00 70 1016.1
20260506094609 35 333 2.0 4.0 0.00 0.00 0.00 70 1016.4
20260506094106 35 300 3.0 3.0 0.00 0.00 0.00 71 1016.3
20260506093605 35 24 1.0 2.0 0.00 0.00 0.00 71 1016.3
20260506093102 35 308 3.0 4.0 0.00 0.00 0.00 71 1016.3
20260506092559 35 286 2.0 6.0 0.00 0.00 0.00 70 1016.1
20260506092056 35 329 1.0 3.0 0.00 0.00 0.00 71 1016.3
20260506091554 35 307 3.0 4.0 0.00 0.00 0.00 71 1016.2
20260506091052 35 317 3.0 6.0 0.00 0.00 0.00 70 1016.2
20260506090549 35 319 2.0 7.0 0.00 0.00 0.00 69 1016.1
20260506090045 35 296 0.0 2.0 0.00 0.00 0.00 70 1016.3
20260506085542 35 272 3.0 6.0 0.00 0.00 0.00 68 1016.2
20260506085038 35 280 1.0 3.0 0.00 0.00 0.00 70 1016.2
20260506084536 35 347 3.0 6.0 0.00 0.00 0.00 69 1016.1
20260506084032 35 306 2.0 6.0 0.00 0.00 0.00 69 1016.1
20260506083529 35 310 2.0 3.0 0.00 0.00 0.00 70 1016.1
20260506083026 35 282 1.0 4.0 0.00 0.00 0.00 70 1016.0
20260506082523 35 262 0.0 4.0 0.00 0.00 0.00 69 1016.0
20260506082019 35 308 2.0 3.0 0.00 0.00 0.00 69 1016.0
20260506081517 35 313 1.0 4.0 0.00 0.00 0.00 70 1016.0
20260506081014 35 285 2.0 2.0 0.00 0.00 0.00 69 1016.2
20260506080512 35 347 1.0 2.0 0.00 0.00 0.00 69 1016.1
20260506073455 35 47 2.0 4.0 0.00 0.00 0.00 68 1016.1
20260506072952 35 344 2.0 6.0 0.00 0.00 0.00 68 1016.0
20260506072449 35 0 3.0 4.0 0.00 0.00 0.00 69 1015.9
20260506071947 35 17 2.0 6.0 0.00 0.00 0.00 68 1015.8
20260506071445 35 358 2.0 6.0 0.00 0.00 0.00 67 1016.0
20260506070941 35 13 3.0 6.0 0.00 0.00 0.00 66 1015.7
20260506070439 35 0 2.0 4.0 0.00 0.00 0.00 67 1015.9
20260506062416 35 38 3.0 6.0 0.00 0.00 0.00 67 1016.0
20260506061912 35 26 4.0 6.0 0.00 0.00 0.00 67 1016.1
20260506061409 35 33 3.0 4.0 0.00 0.00 0.00 68 1016.1
20260506060907 35 85 3.0 6.0 0.00 0.00 0.00 68 1016.1
20260506060404 35 21 2.0 4.0 0.00 0.00 0.00 68 1016.0
20260506051336 36 291 1.0 4.0 0.00 0.00 0.00 68 1015.7
20260506050834 36 285 2.0 3.0 0.00 0.00 0.00 67 1015.9
20260506050331 36 308 0.0 2.0 0.00 0.00 0.00 68 1015.7
20260506044822 35 245 1.0 2.0 0.00 0.00 0.00 67 1015.6
20260506044320 36 255 5.0 6.0 0.00 0.00 0.00 66 1015.8
20260506043816 36 256 2.0 3.0 0.00 0.00 0.00 66 1015.6
20260506043314 36 254 1.0 2.0 0.00 0.00 0.00 66 1015.7
20260506042812 36 277 0.0 4.0 0.00 0.00 0.00 66 1015.5
20260506042311 36 309 3.0 4.0 0.00 0.00 0.00 65 1015.4
20260506041809 36 291 2.0 4.0 0.00 0.00 0.00 65 1015.5
20260506041305 36 313 2.0 2.0 0.00 0.00 0.00 65 1015.3
20260506040803 36 295 2.0 3.0 0.00 0.00 0.00 65 1015.5
20260506040300 36 347 2.0 6.0 0.00 0.00 0.00 64 1015.4
20260506035756 36 325 2.0 6.0 0.00 0.00 0.00 64 1015.4
20260506035253 36 310 1.0 3.0 0.00 0.00 0.00 65 1015.5
20260506034750 36 339 1.0 3.0 0.00 0.00 0.00 63 1015.3
20260506034248 36 9 3.0 4.0 0.00 0.00 0.00 63 1015.5
20260506033744 36 339 2.0 2.0 0.00 0.00 0.00 63 1015.3
20260506033242 36 295 1.0 3.0 0.00 0.00 0.00 62 1015.3
20260506032738 37 331 2.0 4.0 0.00 0.00 0.00 62 1015.2
20260506032235 37 303 1.0 4.0 0.00 0.00 0.00 61 1015.1
20260506031726 37 319 2.0 4.0 0.00 0.00 0.00 61 1015.2
20260506031224 37 296 1.0 2.0 0.00 0.00 0.00 61 1015.2
20260506030722 37 257 0.0 3.0 0.00 0.00 0.00 61 1015.1
20260506030219 37 335 2.0 3.0 0.00 0.00 0.00 61 1015.2
20260506025716 37 303 1.0 2.0 0.00 0.00 0.00 60 1015.2
20260506025212 38 293 1.0 2.0 0.00 0.00 0.00 60 1015.0
20260506024709 38 331 3.0 4.0 0.00 0.00 0.00 59 1015.3
20260506024205 38 299 1.0 2.0 0.00 0.00 0.00 59 1014.9
20260506023702 38 270 0.0 3.0 0.00 0.00 0.00 59 1015.1
20260506023200 38 42 2.0 6.0 0.00 0.00 0.00 57 1014.9
20260506022656 39 267 4.0 4.0 0.00 0.00 0.00 56 1014.6
20260506022154 39 341 4.0 6.0 0.00 0.00 0.00 57 1014.7
20260506021652 39 305 2.0 4.0 0.00 0.00 0.00 56 1014.5
20260506021148 39 315 2.0 4.0 0.00 0.00 0.00 57 1014.5
20260506020640 39 354 3.0 6.0 0.00 0.00 0.00 56 1014.4
20260506020137 39 312 4.0 6.0 0.00 0.00 0.00 55 1014.5
20260506015635 39 333 2.0 6.0 0.00 0.00 0.00 55 1014.5
20260506015131 40 356 5.0 8.0 0.00 0.00 0.00 54 1014.3
20260506014629 40 11 2.0 8.0 0.00 0.00 0.00 54 1014.2
20260506014124 40 11 3.0 7.0 0.00 0.00 0.00 54 1014.3
20260506013623 40 5 3.0 10.0 0.00 0.00 0.00 54 1014.2
20260506013119 40 313 4.0 8.0 0.00 0.00 0.00 53 1014.1
20260506012615 40 344 10.0 14.0 0.00 0.00 0.00 51 1014.2
20260506012111 40 313 8.0 14.0 0.00 0.00 0.00 52 1014.1
20260506011610 41 347 2.0 10.0 0.00 0.00 0.00 53 1014.2
20260506011106 41 313 5.0 13.0 0.00 0.00 0.00 52 1014.2
20260506010600 41 319 6.0 11.0 0.00 0.00 0.00 52 1014.1
20260506010056 41 338 9.0 15.0 0.00 0.00 0.00 51 1014.0
20260506005553 41 33 4.0 7.0 0.00 0.00 0.00 55 1014.0
20260506005049 41 342 6.0 9.0 0.00 0.00 0.00 53 1014.0
20260506004547 41 8 6.0 7.0 0.00 0.00 0.00 54 1013.8
20260506004043 41 310 4.0 14.0 0.00 0.00 0.00 53 1013.9
20260506003540 41 356 4.0 10.0 0.00 0.00 0.00 55 1013.7
20260506003036 41 294 6.0 9.0 0.00 0.00 0.00 53 1013.9
20260506002532 41 357 6.0 15.0 0.00 0.00 0.00 53 1013.8
20260506002028 41 284 4.0 6.0 0.00 0.00 0.00 54 1013.7
20260506001524 41 311 8.0 10.0 0.00 0.00 0.00 52 1013.9
20260506001022 41 260 5.0 11.0 0.00 0.00 0.00 54 1013.6
20260506000519 41 270 8.0 10.0 0.00 0.00 0.00 54 1013.7
20260506000017 41 347 6.0 8.0 0.00 0.00 0.00 55 1013.7
20260505235515 41 67 1.0 6.0 0.00 0.00 0.00 55 1013.5
20260505235011 41 296 6.0 8.0 0.00 0.00 0.00 54 1013.8
20260505234508 41 357 6.0 11.0 0.00 0.00 0.00 54 1013.7
20260505234005 42 279 6.0 9.0 0.00 0.00 0.00 55 1013.9
20260505233502 41 310 6.0 8.0 0.00 0.00 0.00 55 1013.5
20260505232959 41 0 4.0 8.0 0.00 0.00 0.00 55 1013.6
20260505232457 41 305 6.0 8.0 0.00 0.00 0.00 54 1013.8
20260505231954 42 296 7.0 9.0 0.00 0.00 0.00 53 1014.0
20260505231451 42 296 7.0 17.0 0.00 0.00 0.00 53 1014.0
20260505230949 41 305 9.0 11.0 0.00 0.00 0.00 54 1013.8
20260505230441 41 331 6.0 13.0 0.00 0.00 0.00 53 1013.7
20260505225937 42 282 9.0 15.0 0.00 0.00 0.00 54 1013.9
20260505225435 41 307 9.0 10.0 0.00 0.00 0.00 54 1013.7
20260505224930 41 288 9.0 13.0 0.00 0.00 0.00 55 1013.7
20260505224428 41 288 9.0 13.0 0.00 0.00 0.00 55 1013.6
20260505223925 43 271 6.0 7.0 0.00 0.00 0.00 53 1013.8
20260505223422 42 305 5.0 11.0 0.00 0.00 0.00 54 1013.9
20260505222918 43 269 6.0 11.0 0.00 0.00 0.00 52 1013.8
20260505222414 41 2 5.0 6.0 0.00 0.00 0.00 55 1013.6
20260505221910 42 308 8.0 11.0 0.00 0.00 0.00 55 1013.7
20260505221408 42 329 7.0 14.0 0.00 0.00 0.00 55 1013.5
20260505220905 42 326 7.0 10.0 0.00 0.00 0.00 56 1013.4
20260505220402 42 249 4.0 7.0 0.00 0.00 0.00 55 1013.5
20260505215859 42 196 4.0 8.0 0.00 0.00 0.00 56 1013.5
20260505215357 42 301 9.0 10.0 0.00 0.00 0.00 55 1013.8
20260505214855 42 275 7.0 8.0 0.00 0.00 0.00 57 1013.5
20260505214352 43 290 6.0 11.0 0.00 0.00 0.00 54 1013.5
20260505213849 42 258 6.0 11.0 0.00 0.00 0.00 53 1013.4
20260505213347 42 284 5.0 8.0 0.00 0.00 0.00 54 1013.4
20260505212843 42 298 4.0 8.0 0.00 0.00 0.00 54 1013.6
20260505212340 43 213 6.0 7.0 0.00 0.00 0.00 54 1013.3
20260505211836 43 283 4.0 6.0 0.00 0.00 0.00 51 1013.4
20260505211334 43 336 6.0 7.0 0.00 0.00 0.00 52 1013.6
20260505210830 42 265 10.0 11.0 0.00 0.00 0.00 54 1013.5
20260505210327 42 342 5.0 8.0 0.00 0.00 0.00 52 1013.2
20260505205824 42 276 8.0 10.0 0.00 0.00 0.00 51 1013.4
20260505205322 43 297 4.0 14.0 0.00 0.00 0.00 51 1013.4
20260505204819 43 302 4.0 9.0 0.00 0.00 0.00 51 1013.4
20260505204317 43 247 9.0 11.0 0.00 0.00 0.00 50 1013.3
20260505203814 43 315 9.0 11.0 0.00 0.00 0.00 50 1013.2
20260505203310 42 248 4.0 6.0 0.00 0.00 0.00 52 1013.4
20260505202807 42 263 7.0 9.0 0.00 0.00 0.00 51 1013.2
20260505202306 43 4 6.0 10.0 0.00 0.00 0.00 52 1013.4
20260505201800 43 341 2.0 10.0 0.00 0.00 0.00 54 1013.6
20260505201257 43 342 5.0 7.0 0.00 0.00 0.00 54 1013.5
20260505200755 43 315 6.0 10.0 0.00 0.00 0.00 51 1013.5
20260505200252 43 297 10.0 11.0 0.00 0.00 0.00 52 1013.4
20260505195747 43 274 9.0 13.0 0.00 0.00 0.00 52 1013.3
20260505195245 43 286 9.0 13.0 0.00 0.00 0.00 51 1013.1
20260505194742 43 292 8.0 10.0 0.00 0.00 0.00 52 1013.2
20260505194239 43 292 8.0 10.0 0.00 0.00 0.00 52 1013.3
20260505193734 42 309 7.0 9.0 0.00 0.00 0.00 53 1013.3
20260505193232 42 309 7.0 9.0 0.00 0.00 0.00 53 1013.2
20260505192730 42 309 7.0 9.0 0.00 0.00 0.00 53 1013.3
20260505192228 43 301 7.0 9.0 0.00 0.00 0.00 52 1013.1
20260505191726 43 263 3.0 8.0 0.00 0.00 0.00 53 1013.1
20260505191224 43 357 6.0 8.0 0.00 0.00 0.00 52 1013.2
20260505190720 42 312 5.0 9.0 0.00 0.00 0.00 56 1013.2
20260505190220 43 336 9.0 11.0 0.00 0.00 0.00 53 1013.2
20260505185716 43 289 6.0 8.0 0.00 0.00 0.00 54 1013.2
20260505185213 44 319 7.0 15.0 0.00 0.00 0.00 53 1012.9
20260505184709 43 35 2.0 11.0 0.00 0.00 0.00 54 1012.9
20260505184207 43 294 10.0 16.0 0.00 0.00 0.00 50 1012.9
20260505183703 44 300 8.0 11.0 0.00 0.00 0.00 51 1012.9
20260505183201 43 289 6.0 7.0 0.00 0.00 0.00 53 1012.7
20260505182656 44 350 6.0 10.0 0.00 0.00 0.00 53 1013.0
20260505182154 44 289 6.0 9.0 0.00 0.00 0.00 53 1012.7
20260505181650 44 302 6.0 9.0 0.00 0.00 0.00 52 1012.7
20260505181148 43 304 5.0 9.0 0.00 0.00 0.00 52 1012.7
20260505180644 43 298 8.0 14.0 0.00 0.00 0.00 52 1012.7
20260505180141 43 241 7.0 10.0 0.00 0.00 0.00 50 1012.4
20260505175637 43 290 5.0 10.0 0.00 0.00 0.00 51 1012.2
20260505175134 43 260 7.0 16.0 0.00 0.00 0.00 52 1012.7
20260505174631 43 290 11.0 16.0 0.00 0.00 0.00 49 1012.5
20260505174126 43 277 7.0 13.0 0.00 0.00 0.00 51 1012.2
20260505173623 43 278 5.0 10.0 0.00 0.00 0.00 52 1012.4
20260505173114 43 19 5.0 11.0 0.00 0.00 0.00 52 1012.2
20260505172612 43 304 9.0 15.0 0.00 0.00 0.00 52 1012.5
20260505172108 43 357 6.0 11.0 0.00 0.00 0.00 50 1012.4
20260505171603 44 294 4.0 11.0 0.00 0.00 0.00 49 1012.4
20260505171101 44 232 8.0 11.0 0.00 0.00 0.00 47 1012.1
20260505170557 44 329 5.0 9.0 0.00 0.00 0.00 50 1012.0
20260505170054 44 336 9.0 14.0 0.00 0.00 0.00 50 1012.2
20260505165549 45 297 6.0 13.0 0.00 0.00 0.00 51 1012.4
20260505165045 42 307 3.0 9.0 0.00 0.00 0.00 55 1012.1
20260505164541 42 345 7.0 10.0 0.00 0.00 0.00 52 1012.4
20260505164038 42 292 5.0 9.0 0.00 0.00 0.00 51 1012.2
20260505163537 42 326 9.0 10.0 0.00 0.00 0.00 51 1012.4
20260505163033 42 221 5.0 9.0 0.00 0.00 0.00 53 1012.4
20260505162526 42 345 5.0 9.0 0.00 0.00 0.00 53 1012.1
20260505162024 43 335 3.0 9.0 0.00 0.00 0.00 55 1012.1
20260505161520 42 263 5.0 14.0 0.00 0.00 0.00 51 1012.2
20260505161017 43 277 9.0 14.0 0.00 0.00 0.00 50 1012.0
20260505160515 43 284 8.0 13.0 0.00 0.00 0.00 49 1012.2
20260505152951 42 297 5.0 9.0 0.00 0.00 0.00 55 1011.9
20260505152449 43 310 4.0 10.0 0.00 0.00 0.00 55 1011.7
20260505151944 43 305 7.0 8.0 0.00 0.00 0.00 58 1012.0
20260505151440 43 228 6.0 13.0 0.00 0.00 0.00 57 1011.8
20260505150937 43 309 7.0 10.0 0.00 0.00 0.00 57 1011.9
20260505150434 43 256 9.0 15.0 0.00 0.00 0.00 55 1011.9
20260505140404 40 306 3.0 6.0 0.00 0.00 0.00 60 1011.6